Year,Month,Day,Hour,Minute,Value (Times are PST for barometer in hPa)
2012,12,17,00,00,976.75
2012,12,17,00,01,976.70
2012,12,17,00,02,976.70
2012,12,17,00,03,976.70
2012,12,17,00,04,976.70
2012,12,17,00,05,976.71
2012,12,17,00,06,976.74
2012,12,17,00,07,976.73
2012,12,17,00,08,976.72
2012,12,17,00,09,976.77
2012,12,17,00,10,976.76
2012,12,17,00,11,976.75
2012,12,17,00,12,976.76
2012,12,17,00,13,976.73
2012,12,17,00,14,976.71
2012,12,17,00,15,976.73
2012,12,17,00,16,976.70
2012,12,17,00,17,976.70
2012,12,17,00,18,976.70
2012,12,17,00,19,976.69
2012,12,17,00,20,976.69
2012,12,17,00,21,976.72
2012,12,17,00,22,976.68
2012,12,17,00,23,976.70
2012,12,17,00,24,976.70
2012,12,17,00,25,976.70
2012,12,17,00,26,976.70
2012,12,17,00,27,976.70
2012,12,17,00,28,976.70
2012,12,17,00,29,976.70
2012,12,17,00,30,976.70
2012,12,17,00,31,976.70
2012,12,17,00,32,976.72
2012,12,17,00,33,976.77
2012,12,17,00,34,976.78
2012,12,17,00,35,976.79
2012,12,17,00,36,976.77
2012,12,17,00,37,976.77
2012,12,17,00,38,976.79
2012,12,17,00,39,976.83
2012,12,17,00,40,976.80
2012,12,17,00,41,976.81
2012,12,17,00,42,976.84
2012,12,17,00,43,976.84
2012,12,17,00,44,976.84
2012,12,17,00,45,976.85
2012,12,17,00,46,976.87
2012,12,17,00,47,976.86
2012,12,17,00,48,976.85
2012,12,17,00,49,976.87
2012,12,17,00,50,976.87
2012,12,17,00,51,976.89
2012,12,17,00,52,976.93
2012,12,17,00,53,976.92
2012,12,17,00,54,976.96
2012,12,17,00,55,976.94
2012,12,17,00,56,976.94
2012,12,17,00,57,976.96
2012,12,17,00,58,977.03
2012,12,17,00,59,977.08
2012,12,17,01,00,977.09
2012,12,17,01,01,977.11
2012,12,17,01,02,977.10
2012,12,17,01,03,977.08
2012,12,17,01,04,977.09
2012,12,17,01,05,977.11
2012,12,17,01,06,977.11
2012,12,17,01,07,977.11
2012,12,17,01,08,977.10
2012,12,17,01,09,977.07
2012,12,17,01,10,977.04
2012,12,17,01,11,977.05
2012,12,17,01,12,977.11
2012,12,17,01,13,977.11
2012,12,17,01,14,977.13
2012,12,17,01,15,977.18
2012,12,17,01,16,977.17
2012,12,17,01,17,977.14
2012,12,17,01,18,977.14
2012,12,17,01,19,977.15
2012,12,17,01,20,977.18
2012,12,17,01,21,977.19
2012,12,17,01,22,977.21
2012,12,17,01,23,977.21
2012,12,17,01,24,977.21
2012,12,17,01,25,977.22
2012,12,17,01,26,977.22
2012,12,17,01,27,977.20
2012,12,17,01,28,977.27
2012,12,17,01,29,977.24
2012,12,17,01,30,977.23
2012,12,17,01,31,977.20
2012,12,17,01,32,977.19
2012,12,17,01,33,977.25
2012,12,17,01,34,977.28
2012,12,17,01,35,977.28
2012,12,17,01,36,977.28
2012,12,17,01,37,977.28
2012,12,17,01,38,977.29
2012,12,17,01,39,977.32
2012,12,17,01,40,977.33
2012,12,17,01,41,977.28
2012,12,17,01,42,977.27
2012,12,17,01,43,977.24
2012,12,17,01,44,977.23
2012,12,17,01,45,977.21
2012,12,17,01,46,977.20
2012,12,17,01,47,977.19
2012,12,17,01,48,977.23
2012,12,17,01,49,977.27
2012,12,17,01,50,977.25
2012,12,17,01,51,977.28
2012,12,17,01,52,977.29
2012,12,17,01,53,977.33
2012,12,17,01,54,977.39
2012,12,17,01,55,977.40
2012,12,17,01,56,977.38
2012,12,17,01,57,977.40
2012,12,17,01,58,977.45
2012,12,17,01,59,977.46
2012,12,17,02,00,977.49
2012,12,17,02,01,977.51
2012,12,17,02,02,977.48
2012,12,17,02,03,977.48
2012,12,17,02,04,977.49
2012,12,17,02,05,977.57
2012,12,17,02,06,977.63
2012,12,17,02,07,977.64
2012,12,17,02,08,977.62
2012,12,17,02,09,977.63
2012,12,17,02,10,977.66
2012,12,17,02,11,977.69
2012,12,17,02,12,977.72
2012,12,17,02,13,977.73
2012,12,17,02,14,977.77
2012,12,17,02,15,977.83
2012,12,17,02,16,977.85
2012,12,17,02,17,977.87
2012,12,17,02,18,977.92
2012,12,17,02,19,977.92
2012,12,17,02,20,977.92
2012,12,17,02,21,977.93
2012,12,17,02,22,978.00
2012,12,17,02,23,978.03
2012,12,17,02,24,978.06
2012,12,17,02,25,978.06
2012,12,17,02,26,978.07
2012,12,17,02,27,978.09
2012,12,17,02,28,978.10
2012,12,17,02,29,978.13
2012,12,17,02,30,978.16
2012,12,17,02,31,978.17
2012,12,17,02,32,978.20
2012,12,17,02,33,978.24
2012,12,17,02,34,978.26
2012,12,17,02,35,978.26
2012,12,17,02,36,978.28
2012,12,17,02,37,978.33
2012,12,17,02,38,978.34
2012,12,17,02,39,978.40
2012,12,17,02,40,978.42
2012,12,17,02,41,978.51
2012,12,17,02,42,978.54
2012,12,17,02,43,978.58
2012,12,17,02,44,978.61
2012,12,17,02,45,978.64
2012,12,17,02,46,978.67
2012,12,17,02,47,978.68
2012,12,17,02,48,978.70
2012,12,17,02,49,978.71
2012,12,17,02,50,978.72
2012,12,17,02,51,978.72
2012,12,17,02,52,978.77
2012,12,17,02,53,978.77
2012,12,17,02,54,978.78
2012,12,17,02,55,978.81
2012,12,17,02,56,978.85
2012,12,17,02,57,978.88
2012,12,17,02,58,978.94
2012,12,17,02,59,978.96
2012,12,17,03,00,979.02
2012,12,17,03,01,979.05
2012,12,17,03,02,979.13
2012,12,17,03,32,979.23
2012,12,17,03,33,979.28
2012,12,17,03,34,979.32
2012,12,17,03,35,979.42
2012,12,17,03,36,979.52
2012,12,17,03,37,979.59
2012,12,17,03,38,979.65
2012,12,17,03,39,979.67
2012,12,17,03,40,979.72
2012,12,17,03,41,979.72
2012,12,17,03,42,979.76
2012,12,17,03,43,979.83
2012,12,17,03,44,979.88
2012,12,17,03,45,979.95
2012,12,17,03,46,979.97
2012,12,17,03,47,980.02
2012,12,17,03,48,980.04
2012,12,17,03,49,980.10
2012,12,17,03,50,980.13
2012,12,17,03,51,980.17
2012,12,17,03,52,980.20
2012,12,17,03,53,980.23
2012,12,17,03,54,980.25
2012,12,17,03,55,980.24
2012,12,17,03,56,980.29
2012,12,17,03,57,980.32
2012,12,17,03,58,980.39
2012,12,17,03,59,980.40
2012,12,17,04,00,980.46
2012,12,17,04,01,980.50
2012,12,17,04,02,980.51
2012,12,17,04,03,980.55
2012,12,17,04,04,980.59
2012,12,17,04,05,980.56
2012,12,17,04,06,980.59
2012,12,17,04,07,980.68
2012,12,17,04,08,980.71
2012,12,17,04,09,980.65
2012,12,17,04,10,980.64
2012,12,17,04,11,980.66
2012,12,17,04,12,980.68
2012,12,17,04,13,980.74
2012,12,17,04,14,980.78
2012,12,17,04,15,980.83
2012,12,17,04,16,980.88
2012,12,17,04,17,980.93
2012,12,17,04,18,981.02
2012,12,17,04,19,981.12
2012,12,17,04,20,981.23
2012,12,17,04,21,981.27
2012,12,17,04,22,981.31
2012,12,17,04,23,981.40
2012,12,17,04,24,981.45
2012,12,17,04,25,981.46
2012,12,17,04,26,981.43
2012,12,17,04,27,981.49
2012,12,17,04,28,981.55
2012,12,17,04,29,981.61
2012,12,17,04,30,981.55
2012,12,17,04,31,981.60
2012,12,17,04,32,981.68
2012,12,17,04,33,981.69
2012,12,17,04,34,981.72
2012,12,17,04,35,981.72
2012,12,17,04,36,981.68
2012,12,17,04,37,981.77
2012,12,17,04,38,981.83
2012,12,17,04,39,981.85
2012,12,17,04,40,981.86
2012,12,17,04,41,981.89
2012,12,17,04,42,981.95
2012,12,17,04,43,982.03
2012,12,17,04,44,982.06
2012,12,17,04,45,982.08
2012,12,17,04,46,982.09
2012,12,17,04,47,982.16
2012,12,17,04,48,982.17
2012,12,17,04,49,982.14
2012,12,17,04,50,982.18
2012,12,17,04,51,982.16
2012,12,17,04,52,982.20
2012,12,17,04,53,982.24
2012,12,17,04,54,982.28
2012,12,17,04,55,982.30
2012,12,17,04,56,982.39
2012,12,17,04,57,982.39
2012,12,17,04,58,982.41
2012,12,17,04,59,982.46
2012,12,17,05,00,982.48
2012,12,17,05,01,982.55
2012,12,17,05,02,982.60
2012,12,17,05,03,982.65
2012,12,17,05,04,982.72
2012,12,17,05,05,982.77
2012,12,17,05,06,982.81
2012,12,17,05,07,982.86
2012,12,17,05,08,982.93
2012,12,17,05,09,982.93
2012,12,17,05,10,982.94
2012,12,17,05,11,982.98
2012,12,17,05,12,983.02
2012,12,17,05,13,983.07
2012,12,17,05,14,983.08
2012,12,17,05,15,983.10
2012,12,17,05,16,983.14
2012,12,17,05,17,983.20
2012,12,17,05,18,983.22
2012,12,17,05,19,983.27
2012,12,17,05,20,983.28
2012,12,17,05,21,983.33
2012,12,17,05,22,983.38
2012,12,17,05,23,983.42
2012,12,17,05,24,983.46
2012,12,17,05,25,983.52
2012,12,17,05,26,983.58
2012,12,17,05,27,983.65
2012,12,17,05,28,983.68
2012,12,17,05,29,983.68
2012,12,17,05,30,983.71
2012,12,17,05,31,983.78
2012,12,17,05,32,983.78
2012,12,17,05,33,983.80
2012,12,17,05,34,983.86
2012,12,17,05,35,983.90
2012,12,17,05,36,983.96
2012,12,17,05,37,984.01
2012,12,17,05,38,984.05
2012,12,17,05,39,984.07
2012,12,17,05,40,984.14
2012,12,17,05,41,984.20
2012,12,17,05,42,984.23
2012,12,17,05,43,984.28
2012,12,17,05,44,984.37
2012,12,17,05,45,984.38
2012,12,17,05,46,984.38
2012,12,17,05,47,984.41
2012,12,17,05,48,984.42
2012,12,17,05,49,984.49
2012,12,17,05,50,984.49
2012,12,17,05,51,984.52
2012,12,17,05,52,984.57
2012,12,17,05,53,984.60
2012,12,17,05,54,984.64
2012,12,17,05,55,984.67
2012,12,17,05,56,984.71
2012,12,17,05,57,984.76
2012,12,17,05,58,984.76
2012,12,17,05,59,984.77
2012,12,17,06,00,984.83
2012,12,17,06,01,984.91
2012,12,17,06,02,984.95
2012,12,17,06,03,985.02
2012,12,17,06,04,985.06
2012,12,17,06,05,985.03
2012,12,17,06,06,985.05
2012,12,17,06,07,985.14
2012,12,17,06,08,985.20
2012,12,17,06,09,985.20
2012,12,17,06,10,985.23
2012,12,17,06,11,985.30
2012,12,17,06,12,985.32
2012,12,17,06,13,985.37
2012,12,17,06,14,985.39
2012,12,17,06,15,985.46
2012,12,17,06,16,985.53
2012,12,17,06,17,985.55
2012,12,17,06,18,985.51
2012,12,17,06,19,985.56
2012,12,17,06,20,985.69
2012,12,17,06,21,985.70
2012,12,17,06,22,985.68
2012,12,17,06,23,985.70
2012,12,17,06,24,985.75
2012,12,17,06,25,985.79
2012,12,17,06,26,985.79
2012,12,17,06,27,985.77
2012,12,17,06,28,985.84
2012,12,17,06,29,985.83
2012,12,17,06,30,985.88
2012,12,17,06,31,985.90
2012,12,17,06,32,985.95
2012,12,17,06,33,985.95
2012,12,17,06,34,985.97
2012,12,17,06,35,986.06
2012,12,17,06,36,986.13
2012,12,17,06,37,986.15
2012,12,17,06,38,986.17
2012,12,17,06,39,986.22
2012,12,17,06,40,986.24
2012,12,17,06,41,986.29
2012,12,17,06,42,986.31
2012,12,17,06,43,986.35
2012,12,17,06,44,986.37
2012,12,17,06,45,986.45
2012,12,17,06,46,986.54
2012,12,17,06,47,986.59
2012,12,17,06,48,986.59
2012,12,17,06,49,986.61
2012,12,17,06,50,986.66
2012,12,17,06,51,986.68
2012,12,17,06,52,986.77
2012,12,17,06,53,986.82
2012,12,17,06,54,986.81
2012,12,17,06,55,986.89
2012,12,17,06,56,986.91
2012,12,17,06,57,987.05
2012,12,17,06,58,987.10
2012,12,17,06,59,987.15
2012,12,17,07,00,987.27
2012,12,17,07,01,987.30
2012,12,17,07,02,987.40
2012,12,17,07,03,987.43
2012,12,17,07,04,987.53
2012,12,17,07,05,987.59
2012,12,17,07,06,987.64
2012,12,17,07,07,987.66
2012,12,17,07,08,987.75
2012,12,17,07,09,987.84
2012,12,17,07,10,987.85
2012,12,17,07,11,987.89
2012,12,17,07,12,987.95
2012,12,17,07,13,987.97
2012,12,17,07,14,988.02
2012,12,17,07,15,988.05
2012,12,17,07,16,988.07
2012,12,17,07,17,988.10
2012,12,17,07,18,988.08
2012,12,17,07,19,988.09
2012,12,17,07,20,988.16
2012,12,17,07,21,988.27
2012,12,17,07,22,988.27
2012,12,17,07,23,988.34
2012,12,17,07,24,988.40
2012,12,17,07,25,988.41
2012,12,17,07,26,988.40
2012,12,17,07,27,988.44
2012,12,17,07,28,988.50
2012,12,17,07,29,988.49
2012,12,17,07,30,988.44
2012,12,17,07,31,988.51
2012,12,17,07,32,988.55
2012,12,17,07,33,988.56
2012,12,17,07,34,988.59
2012,12,17,07,35,988.61
2012,12,17,07,36,988.66
2012,12,17,07,37,988.66
2012,12,17,07,38,988.68
2012,12,17,07,39,988.73
2012,12,17,07,40,988.76
2012,12,17,07,41,988.78
2012,12,17,07,42,988.83
2012,12,17,07,43,988.84
2012,12,17,07,44,988.85
2012,12,17,07,45,988.84
2012,12,17,07,46,988.91
2012,12,17,07,47,988.96
2012,12,17,07,48,988.96
2012,12,17,07,49,988.97
2012,12,17,07,50,989.02
2012,12,17,07,51,989.06
2012,12,17,07,52,989.07
2012,12,17,07,53,989.10
2012,12,17,07,54,989.10
2012,12,17,07,55,989.11
2012,12,17,07,56,989.14
2012,12,17,07,57,989.15
2012,12,17,07,58,989.16
2012,12,17,07,59,989.24
2012,12,17,08,00,989.33
2012,12,17,08,01,989.45
2012,12,17,08,02,989.45
2012,12,17,08,03,989.39
2012,12,17,08,04,989.43
2012,12,17,08,05,989.41
2012,12,17,08,06,989.46
2012,12,17,08,07,989.51
2012,12,17,08,08,989.56
2012,12,17,08,09,989.61
2012,12,17,08,10,989.67
2012,12,17,08,11,989.73
2012,12,17,08,12,989.74
2012,12,17,08,13,989.83
2012,12,17,08,14,989.89
2012,12,17,08,15,989.92
2012,12,17,08,16,989.95
2012,12,17,08,17,989.98
2012,12,17,08,18,989.97
2012,12,17,08,19,989.95
2012,12,17,08,20,990.02
2012,12,17,08,21,990.05
2012,12,17,08,22,990.10
2012,12,17,08,23,990.14
2012,12,17,08,24,990.16
2012,12,17,08,25,990.30
2012,12,17,08,26,990.37
2012,12,17,08,27,990.42
2012,12,17,08,28,990.42
2012,12,17,08,29,990.45
2012,12,17,08,30,990.54
2012,12,17,08,31,990.53
2012,12,17,08,32,990.56
2012,12,17,08,33,990.60
2012,12,17,08,34,990.62
2012,12,17,08,35,990.63
2012,12,17,08,36,990.68
2012,12,17,08,37,990.79
2012,12,17,08,38,990.81
2012,12,17,08,39,990.86
2012,12,17,08,40,990.87
2012,12,17,08,41,990.91
2012,12,17,08,42,990.98
2012,12,17,08,43,991.05
2012,12,17,08,44,991.10
2012,12,17,08,45,991.14
2012,12,17,08,46,991.17
2012,12,17,08,47,991.21
2012,12,17,08,48,991.25
2012,12,17,08,49,991.30
2012,12,17,08,50,991.31
2012,12,17,08,51,991.34
2012,12,17,08,52,991.38
2012,12,17,08,53,991.45
2012,12,17,08,54,991.53
2012,12,17,08,55,991.54
2012,12,17,08,56,991.58
2012,12,17,08,57,991.64
2012,12,17,08,58,991.74
2012,12,17,08,59,991.75
2012,12,17,09,00,991.79
2012,12,17,09,01,991.85
2012,12,17,09,02,991.88
2012,12,17,09,03,991.94
2012,12,17,09,04,992.01
2012,12,17,09,05,992.02
2012,12,17,09,06,992.05
2012,12,17,09,07,992.09
2012,12,17,09,08,992.16
2012,12,17,09,09,992.19
2012,12,17,09,10,992.21
2012,12,17,09,11,992.23
2012,12,17,09,12,992.28
2012,12,17,09,13,992.31
2012,12,17,09,14,992.40
2012,12,17,09,15,992.46
2012,12,17,09,16,992.48
2012,12,17,09,17,992.49
2012,12,17,09,18,992.53
2012,12,17,09,19,992.55
2012,12,17,09,20,992.58
2012,12,17,09,21,992.65
2012,12,17,09,22,992.66
2012,12,17,09,23,992.72
2012,12,17,09,24,992.79
2012,12,17,09,25,992.79
2012,12,17,09,26,992.82
2012,12,17,09,27,992.92
2012,12,17,09,28,992.95
2012,12,17,09,29,993.03
2012,12,17,09,30,993.04
2012,12,17,09,31,993.05
2012,12,17,09,32,993.04
2012,12,17,09,33,993.09
2012,12,17,09,34,993.18
2012,12,17,09,35,993.26
2012,12,17,09,36,993.29
2012,12,17,09,37,993.34
2012,12,17,09,38,993.33
2012,12,17,09,39,993.41
2012,12,17,09,40,993.44
2012,12,17,09,41,993.46
2012,12,17,09,42,993.46
2012,12,17,09,43,993.50
2012,12,17,09,44,993.51
2012,12,17,09,45,993.55
2012,12,17,09,46,993.61
2012,12,17,09,47,993.65
2012,12,17,09,48,993.70
2012,12,17,09,49,993.71
2012,12,17,09,50,993.76
2012,12,17,09,51,993.81
2012,12,17,09,52,993.84
2012,12,17,09,53,993.85
2012,12,17,09,54,993.88
2012,12,17,09,55,993.94
2012,12,17,09,56,994.00
2012,12,17,09,57,993.99
2012,12,17,09,58,994.04
2012,12,17,09,59,994.05
2012,12,17,10,00,994.09
2012,12,17,10,01,994.15
2012,12,17,10,02,994.18
2012,12,17,10,03,994.19
2012,12,17,10,04,994.23
2012,12,17,10,05,994.29
2012,12,17,10,06,994.31
2012,12,17,10,07,994.33
2012,12,17,10,08,994.40
2012,12,17,10,09,994.47
2012,12,17,10,10,994.53
2012,12,17,10,11,994.56
2012,12,17,10,12,994.60
2012,12,17,10,13,994.66
2012,12,17,10,14,994.67
2012,12,17,10,15,994.66
2012,12,17,10,16,994.67
2012,12,17,10,17,994.66
2012,12,17,10,18,994.69
2012,12,17,10,19,994.74
2012,12,17,10,20,994.77
2012,12,17,10,21,994.73
2012,12,17,10,22,994.75
2012,12,17,10,23,994.78
2012,12,17,10,24,994.85
2012,12,17,10,25,994.87
2012,12,17,10,26,994.91
2012,12,17,10,27,994.92
2012,12,17,10,28,995.00
2012,12,17,10,29,995.02
2012,12,17,10,30,995.03
2012,12,17,10,31,995.09
2012,12,17,10,32,995.18
2012,12,17,10,33,995.24
2012,12,17,10,34,995.27
2012,12,17,10,35,995.28
2012,12,17,10,36,995.27
2012,12,17,10,37,995.28
2012,12,17,10,38,995.27
2012,12,17,10,39,995.30
2012,12,17,10,40,995.34
2012,12,17,10,41,995.37
2012,12,17,10,42,995.41
2012,12,17,10,43,995.44
2012,12,17,10,44,995.47
2012,12,17,10,45,995.50
2012,12,17,10,46,995.52
2012,12,17,10,47,995.56
2012,12,17,10,48,995.56
2012,12,17,10,49,995.56
2012,12,17,10,50,995.56
2012,12,17,10,51,995.57
2012,12,17,10,52,995.59
2012,12,17,10,53,995.57
2012,12,17,10,54,995.61
2012,12,17,10,55,995.63
2012,12,17,10,56,995.64
2012,12,17,10,57,995.66
2012,12,17,10,58,995.64
2012,12,17,10,59,995.70
2012,12,17,11,00,995.76
2012,12,17,11,01,995.73
2012,12,17,11,02,995.74
2012,12,17,11,03,995.77
2012,12,17,11,04,995.79
2012,12,17,11,05,995.86
2012,12,17,11,06,995.89
2012,12,17,11,07,995.87
2012,12,17,11,08,995.88
2012,12,17,11,09,995.90
2012,12,17,11,10,995.92
2012,12,17,11,11,995.97
2012,12,17,11,12,995.97
2012,12,17,11,13,995.97
2012,12,17,11,14,995.99
2012,12,17,11,15,996.05
2012,12,17,11,16,996.07
2012,12,17,11,17,996.07
2012,12,17,11,18,996.10
2012,12,17,11,19,996.17
2012,12,17,11,20,996.16
2012,12,17,11,21,996.15
2012,12,17,11,22,996.19
2012,12,17,11,23,996.23
2012,12,17,11,24,996.25
2012,12,17,11,25,996.33
2012,12,17,11,26,996.33
2012,12,17,11,27,996.39
2012,12,17,11,28,996.41
2012,12,17,11,29,996.42
2012,12,17,11,30,996.45
2012,12,17,11,31,996.46
2012,12,17,11,32,996.49
2012,12,17,11,33,996.51
2012,12,17,11,34,996.52
2012,12,17,11,35,996.55
2012,12,17,11,36,996.56
2012,12,17,11,37,996.59
2012,12,17,11,38,996.62
2012,12,17,11,39,996.65
2012,12,17,11,40,996.64
2012,12,17,11,41,996.62
2012,12,17,11,42,996.67
2012,12,17,11,43,996.72
2012,12,17,11,44,996.74
2012,12,17,11,45,996.77
2012,12,17,11,46,996.75
2012,12,17,11,47,996.76
2012,12,17,11,48,996.78
2012,12,17,11,49,996.78
2012,12,17,11,50,996.77
2012,12,17,11,51,996.77
2012,12,17,11,52,996.84
2012,12,17,11,53,996.92
2012,12,17,11,54,996.99
2012,12,17,11,55,996.94
2012,12,17,11,56,996.99
2012,12,17,11,57,997.01
2012,12,17,11,58,997.02
2012,12,17,11,59,996.97
2012,12,17,12,00,997.04
2012,12,17,12,01,997.02
2012,12,17,12,02,997.03
2012,12,17,12,03,997.07
2012,12,17,12,04,997.11
2012,12,17,12,05,997.09
2012,12,17,12,06,997.10
2012,12,17,12,07,997.14
2012,12,17,12,08,997.21
2012,12,17,12,09,997.26
2012,12,17,12,10,997.27
2012,12,17,12,11,997.31
2012,12,17,12,12,997.35
2012,12,17,12,13,997.31
2012,12,17,12,14,997.28
2012,12,17,12,15,997.37
2012,12,17,12,16,997.38
2012,12,17,12,17,997.37
2012,12,17,12,18,997.39
2012,12,17,12,19,997.40
2012,12,17,12,20,997.45
2012,12,17,12,21,997.51
2012,12,17,12,22,997.54
2012,12,17,12,23,997.54
2012,12,17,12,24,997.49
2012,12,17,12,25,997.48
2012,12,17,12,26,997.53
2012,12,17,12,27,997.54
2012,12,17,12,28,997.56
2012,12,17,12,29,997.57
2012,12,17,12,30,997.61
2012,12,17,12,31,997.63
2012,12,17,12,32,997.64
2012,12,17,12,33,997.68
2012,12,17,12,34,997.71
2012,12,17,12,35,997.65
2012,12,17,12,36,997.64
2012,12,17,12,37,997.65
2012,12,17,12,38,997.64
2012,12,17,12,39,997.66
2012,12,17,12,40,997.66
2012,12,17,12,41,997.65
2012,12,17,12,42,997.63
2012,12,17,12,43,997.64
2012,12,17,12,44,997.68
2012,12,17,12,45,997.71
2012,12,17,12,46,997.69
2012,12,17,12,47,997.75
2012,12,17,12,48,997.61
2012,12,17,12,49,997.68
2012,12,17,12,50,997.75
2012,12,17,12,51,997.79
2012,12,17,12,52,997.77
2012,12,17,12,53,997.78
2012,12,17,12,54,997.82
2012,12,17,12,55,997.87
2012,12,17,12,56,997.87
2012,12,17,12,57,997.89
2012,12,17,12,58,997.96
2012,12,17,12,59,997.95
2012,12,17,13,00,998.01
2012,12,17,13,01,998.04
2012,12,17,13,02,998.04
2012,12,17,13,03,998.05
2012,12,17,13,04,998.07
2012,12,17,13,05,998.06
2012,12,17,13,06,998.05
2012,12,17,13,07,998.06
2012,12,17,13,08,998.04
2012,12,17,13,09,998.05
2012,12,17,13,10,998.06
2012,12,17,13,11,998.05
2012,12,17,13,12,998.07
2012,12,17,13,13,998.06
2012,12,17,13,14,998.04
2012,12,17,13,15,998.04
2012,12,17,13,16,998.03
2012,12,17,13,17,998.00
2012,12,17,13,18,997.99
2012,12,17,13,19,997.94
2012,12,17,13,20,997.95
2012,12,17,13,21,997.98
2012,12,17,13,22,998.00
2012,12,17,13,23,998.02
2012,12,17,13,24,998.06
2012,12,17,13,25,998.03
2012,12,17,13,26,998.01
2012,12,17,13,27,998.04
2012,12,17,13,28,998.05
2012,12,17,13,29,998.07
2012,12,17,13,30,998.07
2012,12,17,13,31,998.09
2012,12,17,13,32,998.14
2012,12,17,13,33,998.15
2012,12,17,13,34,998.18
2012,12,17,13,35,998.24
2012,12,17,13,36,998.31
2012,12,17,13,37,998.22
2012,12,17,13,38,998.28
2012,12,17,13,39,998.30
2012,12,17,13,40,998.27
2012,12,17,13,41,998.27
2012,12,17,13,42,998.29
2012,12,17,13,43,998.35
2012,12,17,13,44,998.40
2012,12,17,13,45,998.45
2012,12,17,13,46,998.48
2012,12,17,13,47,998.49
2012,12,17,13,48,998.51
2012,12,17,13,49,998.51
2012,12,17,13,50,998.53
2012,12,17,13,51,998.57
2012,12,17,13,52,998.52
2012,12,17,13,53,998.57
2012,12,17,13,54,998.65
2012,12,17,13,55,998.67
2012,12,17,13,56,998.70
2012,12,17,13,57,998.66
2012,12,17,13,58,998.69
2012,12,17,13,59,998.71
2012,12,17,14,00,998.72
2012,12,17,14,01,998.76
2012,12,17,14,02,998.81
2012,12,17,14,03,998.90
2012,12,17,14,04,998.87
2012,12,17,14,05,998.95
2012,12,17,14,06,998.94
2012,12,17,14,07,998.93
2012,12,17,14,08,998.99
2012,12,17,14,09,998.99
2012,12,17,14,10,999.00
2012,12,17,14,11,999.02
2012,12,17,14,12,999.04
2012,12,17,14,13,999.08
2012,12,17,14,14,999.07
2012,12,17,14,15,999.14
2012,12,17,14,16,999.13
2012,12,17,14,17,999.14
2012,12,17,14,18,999.14
2012,12,17,14,19,999.18
2012,12,17,14,20,999.14
2012,12,17,14,21,999.22
2012,12,17,14,22,999.29
2012,12,17,14,23,999.30
2012,12,17,14,24,999.39
2012,12,17,14,25,999.49
2012,12,17,14,26,999.49
2012,12,17,14,27,999.49
2012,12,17,14,28,999.52
2012,12,17,14,29,999.58
2012,12,17,14,30,999.57
2012,12,17,14,31,999.62
2012,12,17,14,32,999.71
2012,12,17,14,33,999.68
2012,12,17,14,34,999.75
2012,12,17,14,35,999.74
2012,12,17,14,36,999.76
2012,12,17,14,37,999.78
2012,12,17,14,38,999.82
2012,12,17,14,39,999.81
2012,12,17,14,40,999.87
2012,12,17,14,41,999.87
2012,12,17,14,42,999.86
2012,12,17,14,43,999.84
2012,12,17,14,44,999.86
2012,12,17,14,45,999.83
2012,12,17,14,46,999.84
2012,12,17,14,47,999.88
2012,12,17,14,48,999.89
2012,12,17,14,49,999.87
2012,12,17,14,50,999.87
2012,12,17,14,51,999.85
2012,12,17,14,52,999.81
2012,12,17,14,53,999.84
2012,12,17,14,54,999.79
2012,12,17,14,55,999.88
2012,12,17,14,56,999.88
2012,12,17,14,57,999.80
2012,12,17,14,58,999.82
2012,12,17,14,59,999.90
2012,12,17,15,00,999.90
2012,12,17,15,01,999.91
2012,12,17,15,02,999.91
2012,12,17,15,03,999.89
2012,12,17,15,04,999.97
2012,12,17,15,05,999.99
2012,12,17,15,06,1000.08
2012,12,17,15,07,1000.12
2012,12,17,15,08,1000.19
2012,12,17,15,09,1000.15
2012,12,17,15,10,1000.19
2012,12,17,15,11,1000.23
2012,12,17,15,12,1000.20
2012,12,17,15,13,1000.20
2012,12,17,15,14,1000.22
2012,12,17,15,15,1000.30
2012,12,17,15,16,1000.44
2012,12,17,15,17,1000.51
2012,12,17,15,18,1000.44
2012,12,17,15,19,1000.57
2012,12,17,15,20,1000.46
2012,12,17,15,21,1000.52
2012,12,17,15,22,1000.56
2012,12,17,15,23,1000.62
2012,12,17,15,24,1000.65
2012,12,17,15,25,1000.72
2012,12,17,15,26,1000.83
2012,12,17,15,27,1000.80
2012,12,17,15,28,1000.84
2012,12,17,15,29,1000.79
2012,12,17,15,30,1000.89
2012,12,17,15,31,1001.09
2012,12,17,15,32,1000.97
2012,12,17,15,33,1000.91
2012,12,17,15,34,1000.91
2012,12,17,15,35,1000.99
2012,12,17,15,36,1001.03
2012,12,17,15,37,1001.02
2012,12,17,15,38,1000.92
2012,12,17,15,39,1000.95
2012,12,17,15,40,1001.03
2012,12,17,15,41,1001.06
2012,12,17,15,42,1001.07
2012,12,17,15,43,1001.04
2012,12,17,15,44,1001.04
2012,12,17,15,45,1001.12
2012,12,17,15,46,1001.13
2012,12,17,15,47,1001.17
2012,12,17,15,48,1001.22
2012,12,17,15,49,1001.24
2012,12,17,15,50,1001.27
2012,12,17,15,51,1001.23
2012,12,17,15,52,1001.28
2012,12,17,15,53,1001.21
2012,12,17,15,54,1001.20
2012,12,17,15,55,1001.24
2012,12,17,15,56,1001.23
2012,12,17,15,57,1001.26
2012,12,17,15,58,1001.31
2012,12,17,15,59,1001.35
2012,12,17,16,00,1001.31
2012,12,17,16,01,1001.37
2012,12,17,16,02,1001.37
2012,12,17,16,03,1001.35
2012,12,17,16,04,1001.47
2012,12,17,16,05,1001.39
2012,12,17,16,06,1001.41
2012,12,17,16,07,1001.50
2012,12,17,16,08,1001.52
2012,12,17,16,09,1001.52
2012,12,17,16,10,1001.53
2012,12,17,16,11,1001.59
2012,12,17,16,12,1001.59
2012,12,17,16,13,1001.60
2012,12,17,16,14,1001.64
2012,12,17,16,15,1001.65
2012,12,17,16,16,1001.63
2012,12,17,16,17,1001.64
2012,12,17,16,18,1001.67
2012,12,17,16,19,1001.70
2012,12,17,16,20,1001.74
2012,12,17,16,21,1001.77
2012,12,17,16,22,1001.77
2012,12,17,16,23,1001.72
2012,12,17,16,24,1001.83
2012,12,17,16,25,1001.83
2012,12,17,16,26,1001.84
2012,12,17,16,27,1001.85
2012,12,17,16,28,1001.82
2012,12,17,16,29,1001.92
2012,12,17,16,30,1001.99
2012,12,17,16,31,1001.95
2012,12,17,16,32,1002.00
2012,12,17,16,33,1002.01
2012,12,17,16,34,1002.06
2012,12,17,16,35,1002.02
2012,12,17,16,36,1002.01
2012,12,17,16,37,1002.03
2012,12,17,16,38,1002.05
2012,12,17,16,39,1002.12
2012,12,17,16,40,1002.11
2012,12,17,16,41,1002.17
2012,12,17,16,42,1002.15
2012,12,17,16,43,1002.12
2012,12,17,16,44,1002.21
2012,12,17,16,45,1002.23
2012,12,17,16,46,1002.19
2012,12,17,16,47,1002.18
2012,12,17,16,48,1002.21
2012,12,17,16,49,1002.25
2012,12,17,16,50,1002.26
2012,12,17,16,51,1002.25
2012,12,17,16,52,1002.28
2012,12,17,16,53,1002.32
2012,12,17,16,54,1002.39
2012,12,17,16,55,1002.45
2012,12,17,16,56,1002.47
2012,12,17,16,57,1002.47
2012,12,17,16,58,1002.49
2012,12,17,16,59,1002.55
2012,12,17,17,00,1002.56